Time,TemperatureF,DewpointF,PressureIn,WindDirection,WindDirectionDegrees,WindSpeedMPH,WindSpeedGustMPH,Humidity,HourlyPrecipIn,Conditions,Clouds,dailyrainin,SoftwareType,DateUTC
2013-01-22 00:00:00,8.7,-1.6,24.45,West,259,9.0,13.0,62,0.00,,SKC,0.00,VWS V14.01,2013-01-22 05:00:00,
2013-01-22 00:06:00,8.6,-1.7,24.45,North,5,2.0,13.0,62,0.00,,SKC,0.00,VWS V14.01,2013-01-22 05:06:00,
2013-01-22 00:11:00,8.6,-2.1,24.45,WNW,298,5.0,12.0,61,0.00,,SKC,0.00,VWS V14.01,2013-01-22 05:11:00,
2013-01-22 00:16:00,8.5,-2.2,24.56,NW,306,5.0,15.0,61,0.00,,SKC,0.00,VWS V14.01,2013-01-22 05:16:00,
2013-01-22 00:21:00,8.4,-2.6,24.62,WNW,295,4.0,19.0,60,0.00,,SKC,0.00,VWS V14.01,2013-01-22 05:21:00,
2013-01-22 00:26:00,8.4,-2.6,24.56,West,276,9.0,16.0,60,0.00,,SKC,0.00,VWS V14.01,2013-01-22 05:26:00,
2013-01-22 00:30:00,8.3,-2.4,24.56,WNW,284,13.0,18.0,61,0.00,,SKC,0.00,VWS V14.01,2013-01-22 05:30:00,
2013-01-22 00:35:00,8.2,-2.5,24.64,NW,314,9.0,14.0,61,0.00,,SKC,0.00,VWS V14.01,2013-01-22 05:35:00,
2013-01-22 00:40:00,8.2,-2.5,24.55,WNW,284,12.0,15.0,61,0.00,,SKC,0.00,VWS V14.01,2013-01-22 05:40:00,
2013-01-22 00:45:00,8.2,-2.5,24.31,West,265,11.0,18.0,61,0.00,,SKC,0.00,VWS V14.01,2013-01-22 05:45:00,
2013-01-22 00:50:00,8.1,-2.2,24.31,WNW,303,7.0,7.0,62,0.00,,SKC,0.00,VWS V14.01,2013-01-22 05:50:00,
2013-01-22 00:55:00,8.0,-2.0,24.31,West,275,3.0,14.0,63,0.00,,SKC,0.00,VWS V14.01,2013-01-22 05:55:00,
2013-01-22 01:00:00,8.0,-2.3,24.58,West,275,2.0,10.0,62,0.00,,SKC,0.00,VWS V14.01,2013-01-22 06:00:00,
2013-01-22 01:05:00,7.9,-2.1,24.58,WSW,253,8.0,9.0,63,0.00,,SKC,0.00,VWS V14.01,2013-01-22 06:05:00,
2013-01-22 01:10:00,7.8,-2.2,24.58,NW,311,3.0,15.0,63,0.00,,SKC,0.00,VWS V14.01,2013-01-22 06:10:00,
2013-01-22 01:15:00,7.7,-1.9,24.55,WNW,289,13.0,13.0,64,0.00,,SKC,0.00,VWS V14.01,2013-01-22 06:15:00,
2013-01-22 01:20:00,7.7,-1.9,24.50,WNW,284,0.0,11.0,64,0.00,,SKC,0.00,VWS V14.01,2013-01-22 06:20:00,
2013-01-22 01:25:00,7.7,-1.9,24.38,NW,315,5.0,11.0,64,0.00,,SKC,0.00,VWS V14.01,2013-01-22 06:25:00,
2013-01-22 01:30:00,7.5,-2.1,24.38,WNW,301,9.0,16.0,64,0.00,,SKC,0.00,VWS V14.01,2013-01-22 06:30:00,
2013-01-22 01:35:00,7.5,-1.8,24.59,West,259,3.0,15.0,65,0.00,,SKC,0.00,VWS V14.01,2013-01-22 06:35:00,
2013-01-22 01:40:00,7.4,-2.2,24.59,WNW,286,4.0,11.0,64,0.00,,SKC,0.00,VWS V14.01,2013-01-22 06:40:00,
2013-01-22 01:45:00,7.3,-2.3,24.58,West,263,4.0,12.0,64,0.00,,SKC,0.00,VWS V14.01,2013-01-22 06:45:00,
2013-01-22 01:50:00,7.3,-2.0,24.58,NW,311,6.0,13.0,65,0.00,,SKC,0.00,VWS V14.01,2013-01-22 06:50:00,
2013-01-22 01:55:00,7.2,-2.1,24.59,West,263,1.0,15.0,65,0.00,,SKC,0.00,VWS V14.01,2013-01-22 06:55:00,
2013-01-22 02:00:00,7.2,-2.1,24.60,West,265,9.0,14.0,65,0.00,,SKC,0.00,VWS V14.01,2013-01-22 07:00:00,
2013-01-22 02:05:00,7.1,-2.2,24.61,NW,307,3.0,14.0,65,0.00,,SKC,0.00,VWS V14.01,2013-01-22 07:05:00,
2013-01-22 02:10:00,7.1,-1.9,24.58,NW,317,7.0,11.0,66,0.00,,SKC,0.00,VWS V14.01,2013-01-22 07:10:00,
2013-01-22 02:15:00,7.0,-2.0,24.60,NW,308,10.0,14.0,66,0.00,,SKC,0.00,VWS V14.01,2013-01-22 07:15:00,
2013-01-22 02:20:00,6.9,-1.7,24.60,NNW,336,8.0,11.0,67,0.00,,SKC,0.00,VWS V14.01,2013-01-22 07:20:00,
2013-01-22 02:25:00,6.9,-2.0,24.59,WNW,282,4.0,13.0,66,0.00,,SKC,0.00,VWS V14.01,2013-01-22 07:25:00,
2013-01-22 02:30:00,6.8,-2.1,24.59,WSW,248,3.0,12.0,66,0.00,,SKC,0.00,VWS V14.01,2013-01-22 07:30:00,
2013-01-22 02:35:00,6.8,-1.8,24.60,West,278,6.0,9.0,67,0.00,,SKC,0.00,VWS V14.01,2013-01-22 07:35:00,
2013-01-22 02:40:00,6.7,-1.6,24.47,WNW,290,10.0,13.0,68,0.00,,SKC,0.00,VWS V14.01,2013-01-22 07:40:00,
2013-01-22 02:45:00,6.6,-2.0,24.60,WNW,303,0.0,14.0,67,0.00,,SKC,0.00,VWS V14.01,2013-01-22 07:45:00,
2013-01-22 02:50:00,6.6,-2.3,24.62,WNW,283,5.0,12.0,66,0.00,,SKC,0.00,VWS V14.01,2013-01-22 07:50:00,
2013-01-22 02:55:00,6.5,-2.1,24.59,West,266,2.0,10.0,67,0.00,,SKC,0.00,VWS V14.01,2013-01-22 07:55:00,
2013-01-22 03:00:00,6.6,-2.0,24.60,WSW,257,2.0,10.0,67,0.00,,SKC,0.00,VWS V14.01,2013-01-22 08:00:00,
2013-01-22 03:05:00,6.5,-1.8,24.63,NNW,344,1.0,14.0,68,0.00,,SKC,0.00,VWS V14.01,2013-01-22 08:05:00,
2013-01-22 03:10:00,6.4,-2.2,24.60,West,278,10.0,12.0,67,0.00,,SKC,0.00,VWS V14.01,2013-01-22 08:10:00,
2013-01-22 03:15:00,6.4,-2.2,24.62,West,279,5.0,16.0,67,0.00,,SKC,0.00,VWS V14.01,2013-01-22 08:15:00,
2013-01-22 03:20:00,6.3,-2.0,24.61,West,261,0.0,12.0,68,0.00,,SKC,0.00,VWS V14.01,2013-01-22 08:20:00,
2013-01-22 03:25:00,6.3,-2.0,24.59,WNW,302,11.0,14.0,68,0.00,,SKC,0.00,VWS V14.01,2013-01-22 08:25:00,
2013-01-22 03:30:00,6.3,-2.0,24.59,West,273,4.0,11.0,68,0.00,,SKC,0.00,VWS V14.01,2013-01-22 08:30:00,
2013-01-22 03:35:00,6.2,-2.1,24.62,WNW,291,0.0,10.0,68,0.00,,SKC,0.00,VWS V14.01,2013-01-22 08:35:00,
2013-01-22 03:40:00,6.2,-1.8,24.60,West,279,3.0,15.0,69,0.00,,SKC,0.00,VWS V14.01,2013-01-22 08:40:00,
2013-01-22 03:45:00,6.2,-1.8,24.60,WNW,287,6.0,13.0,69,0.00,,SKC,0.00,VWS V14.01,2013-01-22 08:45:00,
2013-01-22 03:50:00,6.1,-1.9,24.58,West,276,3.0,11.0,69,0.00,,SKC,0.00,VWS V14.01,2013-01-22 08:50:00,
2013-01-22 03:55:00,6.0,-2.0,24.62,NNW,338,3.0,15.0,69,0.00,,SKC,0.00,VWS V14.01,2013-01-22 08:55:00,
2013-01-22 04:00:00,5.9,-2.1,24.62,WNW,287,0.0,7.0,69,0.00,,SKC,0.00,VWS V14.01,2013-01-22 09:00:00,
2013-01-22 04:05:00,5.9,0.0,24.59,NW,317,2.0,14.0,76,0.00,,SKC,0.00,VWS V14.01,2013-01-22 09:05:00,
2013-01-22 04:10:00,5.9,0.0,24.58,WNW,284,8.0,12.0,76,0.00,,SKC,0.00,VWS V14.01,2013-01-22 09:10:00,
2013-01-22 04:15:00,5.9,-2.4,24.59,WNW,292,12.0,15.0,68,0.00,,SKC,0.00,VWS V14.01,2013-01-22 09:15:00,
2013-01-22 04:20:00,5.8,-2.2,24.60,West,278,17.0,17.0,69,0.00,,SKC,0.00,VWS V14.01,2013-01-22 09:20:00,
2013-01-22 04:25:00,5.8,-2.2,24.59,West,277,5.0,12.0,69,0.00,,SKC,0.00,VWS V14.01,2013-01-22 09:25:00,
2013-01-22 04:30:00,5.8,-1.9,24.59,WNW,288,1.0,13.0,70,0.00,,SKC,0.00,VWS V14.01,2013-01-22 09:30:00,
2013-01-22 04:35:00,5.7,-2.3,24.59,WNW,302,4.0,11.0,69,0.00,,SKC,0.00,VWS V14.01,2013-01-22 09:35:00,
2013-01-22 04:40:00,5.7,-2.3,24.59,WSW,252,2.0,9.0,69,0.00,,SKC,0.00,VWS V14.01,2013-01-22 09:40:00,
2013-01-22 04:45:00,5.6,-2.0,24.58,WNW,299,9.0,13.0,70,0.00,,SKC,0.00,VWS V14.01,2013-01-22 09:45:00,
2013-01-22 04:50:00,5.6,-1.8,24.58,West,281,1.0,6.0,71,0.00,,SKC,0.00,VWS V14.01,2013-01-22 09:50:00,
2013-01-22 04:55:00,5.6,-1.8,24.60,WSW,238,6.0,14.0,71,0.00,,SKC,0.00,VWS V14.01,2013-01-22 09:55:00,
2013-01-22 05:00:00,5.6,-1.8,24.57,WNW,296,10.0,15.0,71,0.00,,SKC,0.00,VWS V14.01,2013-01-22 10:00:00,
2013-01-22 05:05:00,5.6,-1.8,24.59,WNW,296,12.0,12.0,71,0.00,,SKC,0.00,VWS V14.01,2013-01-22 10:05:00,
2013-01-22 05:10:00,5.5,-1.5,24.57,West,266,6.0,9.0,72,0.00,,SKC,0.00,VWS V14.01,2013-01-22 10:10:00,
2013-01-22 05:15:00,5.5,-1.9,24.59,West,271,2.0,15.0,71,0.00,,SKC,0.00,VWS V14.01,2013-01-22 10:15:00,
2013-01-22 05:20:00,5.5,-1.3,24.59,NW,319,4.0,13.0,73,0.00,,SKC,0.00,VWS V14.01,2013-01-22 10:20:00,
2013-01-22 05:25:00,5.5,-1.5,24.58,WNW,287,3.0,13.0,72,0.00,,SKC,0.00,VWS V14.01,2013-01-22 10:25:00,
2013-01-22 05:30:00,5.4,-1.6,24.60,West,277,5.0,10.0,72,0.00,,SKC,0.00,VWS V14.01,2013-01-22 10:30:00,
2013-01-22 05:35:00,5.3,-1.8,24.60,WNW,292,5.0,12.0,72,0.00,,SKC,0.00,VWS V14.01,2013-01-22 10:35:00,
2013-01-22 05:40:00,5.3,-1.8,24.60,WNW,287,4.0,10.0,72,0.00,,SKC,0.00,VWS V14.01,2013-01-22 10:40:00,
2013-01-22 05:45:00,5.3,-1.8,24.57,West,265,5.0,15.0,72,0.00,,SKC,0.00,VWS V14.01,2013-01-22 10:45:00,
2013-01-22 05:50:00,5.4,-1.4,24.59,West,281,6.0,7.0,73,0.00,,SKC,0.00,VWS V14.01,2013-01-22 10:50:00,
2013-01-22 05:55:00,5.3,-1.2,24.62,NW,307,1.0,10.0,74,0.00,,SKC,0.00,VWS V14.01,2013-01-22 10:55:00,
2013-01-22 06:00:00,5.3,-1.2,24.61,West,275,3.0,14.0,74,0.00,,SKC,0.00,VWS V14.01,2013-01-22 11:00:00,
2013-01-22 06:05:00,5.3,-1.2,24.62,WSW,253,11.0,13.0,74,0.00,,SKC,0.00,VWS V14.01,2013-01-22 11:05:00,
2013-01-22 06:10:00,5.2,-0.7,24.59,WNW,288,2.0,10.0,76,0.00,,SKC,0.00,VWS V14.01,2013-01-22 11:10:00,
2013-01-22 06:15:00,5.3,-0.6,24.59,WNW,297,3.0,8.0,76,0.00,,SKC,0.00,VWS V14.01,2013-01-22 11:15:00,
2013-01-22 06:20:00,5.3,-0.6,24.59,West,277,2.0,8.0,76,0.00,,SKC,0.00,VWS V14.01,2013-01-22 11:20:00,
2013-01-22 06:25:00,5.2,-1.3,24.64,NNW,334,2.0,13.0,74,0.00,,SKC,0.00,VWS V14.01,2013-01-22 11:25:00,
2013-01-22 06:30:00,5.2,-1.3,24.64,NW,309,0.0,6.0,74,0.00,,SKC,0.00,VWS V14.01,2013-01-22 11:30:00,
2013-01-22 06:36:00,5.2,-1.0,24.61,West,279,0.0,4.0,75,0.00,,SKC,0.00,VWS V14.01,2013-01-22 11:36:00,
2013-01-22 06:40:00,5.2,-1.0,24.61,WNW,298,5.0,10.0,75,0.00,,SKC,0.00,VWS V14.01,2013-01-22 11:40:00,
2013-01-22 06:45:00,5.1,-1.4,24.61,WNW,288,10.0,13.0,74,0.00,,SKC,0.00,VWS V14.01,2013-01-22 11:45:00,
2013-01-22 06:50:00,5.0,-1.5,24.63,WNW,282,3.0,11.0,74,0.00,,SKC,0.00,VWS V14.01,2013-01-22 11:50:00,
2013-01-22 06:55:00,5.0,-1.5,24.63,West,274,2.0,13.0,74,0.00,,SKC,0.00,VWS V14.01,2013-01-22 11:55:00,
2013-01-22 07:01:00,5.0,-1.8,24.42,NW,318,5.0,12.0,73,0.00,,SKC,0.00,VWS V14.01,2013-01-22 12:01:00,
2013-01-22 07:06:00,4.9,-1.6,24.54,NW,310,10.0,10.0,74,0.00,,SKC,0.00,VWS V14.01,2013-01-22 12:06:00,
2013-01-22 07:11:00,4.9,-1.6,24.54,NNW,333,0.0,5.0,74,0.00,,SKC,0.00,VWS V14.01,2013-01-22 12:11:00,
2013-01-22 07:16:00,4.9,-1.3,24.54,West,277,0.0,7.0,75,0.00,,SKC,0.00,VWS V14.01,2013-01-22 12:16:00,
2013-01-22 07:21:00,4.8,-1.4,24.54,WNW,294,0.0,2.0,75,0.00,,SKC,0.00,VWS V14.01,2013-01-22 12:21:00,
2013-01-22 07:26:00,4.8,-1.4,24.54,West,271,3.0,11.0,75,0.00,,SKC,0.00,VWS V14.01,2013-01-22 12:26:00,
2013-01-22 07:31:00,4.7,-1.5,24.54,West,281,4.0,7.0,75,0.00,,SKC,0.00,VWS V14.01,2013-01-22 12:31:00,
2013-01-22 07:36:00,4.7,-1.5,24.54,NW,309,3.0,4.0,75,0.00,,SKC,0.00,VWS V14.01,2013-01-22 12:36:00,
2013-01-22 07:41:00,4.6,-1.9,24.54,WNW,292,0.0,11.0,74,0.00,,SKC,0.00,VWS V14.01,2013-01-22 12:41:00,
2013-01-22 07:46:00,4.6,-1.9,24.54,West,261,2.0,5.0,74,0.00,,SKC,0.00,VWS V14.01,2013-01-22 12:46:00,
2013-01-22 07:51:00,4.5,-1.7,24.54,WNW,295,1.0,7.0,75,0.00,,SKC,0.00,VWS V14.01,2013-01-22 12:51:00,
2013-01-22 07:56:00,4.5,-1.9,24.92,WNW,282,3.0,12.0,74,0.00,,SKC,0.00,VWS V14.01,2013-01-22 12:56:00,
2013-01-22 08:01:00,4.5,-1.9,24.92,WNW,292,3.0,7.0,74,0.00,,SKC,0.00,VWS V14.01,2013-01-22 13:01:00,
2013-01-22 08:06:00,4.4,-2.0,24.92,WNW,300,6.0,10.0,74,0.00,,SKC,0.00,VWS V14.01,2013-01-22 13:06:00,
2013-01-22 08:11:00,4.5,-1.7,24.92,WSW,240,2.0,8.0,75,0.00,,SKC,0.00,VWS V14.01,2013-01-22 13:11:00,
2013-01-22 08:16:00,4.5,-1.9,24.92,West,270,7.0,7.0,74,0.00,,SKC,0.00,VWS V14.01,2013-01-22 13:16:00,
2013-01-22 08:21:00,4.5,-1.9,24.92,WNW,291,7.0,10.0,74,0.00,,SKC,0.00,VWS V14.01,2013-01-22 13:21:00,
2013-01-22 08:26:00,4.5,-1.9,24.92,West,271,3.0,11.0,74,0.00,,SKC,0.00,VWS V14.01,2013-01-22 13:26:00,
2013-01-22 08:31:00,4.6,-1.6,24.92,NW,307,7.0,10.0,75,0.00,,SKC,0.00,VWS V14.01,2013-01-22 13:31:00,
2013-01-22 08:36:00,4.7,-1.5,24.92,WNW,302,2.0,10.0,75,0.00,,SKC,0.00,VWS V14.01,2013-01-22 13:36:00,
2013-01-22 08:41:00,4.6,-1.9,24.54,WNW,283,2.0,10.0,74,0.00,,SKC,0.00,VWS V14.01,2013-01-22 13:41:00,
2013-01-22 08:46:00,4.6,-1.6,24.54,WNW,285,3.0,9.0,75,0.00,,SKC,0.00,VWS V14.01,2013-01-22 13:46:00,
2013-01-22 08:51:00,4.7,-1.5,24.54,WSW,240,1.0,6.0,75,0.00,,SKC,0.00,VWS V14.01,2013-01-22 13:51:00,
2013-01-22 08:56:00,4.8,-1.6,24.54,WSW,247,3.0,13.0,74,0.00,,SKC,0.00,VWS V14.01,2013-01-22 13:56:00,
2013-01-22 09:01:00,5.0,-1.2,24.54,NW,308,3.0,12.0,75,0.00,,SKC,0.00,VWS V14.01,2013-01-22 14:01:00,
2013-01-22 09:06:00,5.2,-1.3,24.54,West,276,4.0,12.0,74,0.00,,SKC,0.00,VWS V14.01,2013-01-22 14:06:00,
2013-01-22 09:11:00,5.4,-1.4,24.54,West,267,10.0,14.0,73,0.00,,SKC,0.00,VWS V14.01,2013-01-22 14:11:00,
2013-01-22 09:16:00,5.4,-1.4,24.52,WNW,293,2.0,7.0,73,0.00,,SKC,0.00,VWS V14.01,2013-01-22 14:16:00,
2013-01-22 09:21:00,5.4,-1.4,24.52,NW,317,5.0,10.0,73,0.00,,SKC,0.00,VWS V14.01,2013-01-22 14:21:00,
2013-01-22 09:26:00,5.5,-1.3,24.18,West,265,0.0,10.0,73,0.00,,SKC,0.00,VWS V14.01,2013-01-22 14:26:00,
2013-01-22 09:31:00,6.0,-0.8,24.18,SSW,203,4.0,11.0,73,0.00,,SKC,0.00,VWS V14.01,2013-01-22 14:31:00,
2013-01-22 09:36:00,6.0,-1.1,24.18,NW,313,7.0,12.0,72,0.00,,SKC,0.00,VWS V14.01,2013-01-22 14:36:00,
2013-01-22 09:41:00,5.9,-1.2,24.18,WNW,303,2.0,9.0,72,0.00,,SKC,0.00,VWS V14.01,2013-01-22 14:41:00,
2013-01-22 09:46:00,6.0,-0.8,24.18,WNW,296,5.0,7.0,73,0.00,,SKC,0.00,VWS V14.01,2013-01-22 14:46:00,
2013-01-22 09:51:00,5.9,-1.2,25.30,WSW,256,1.0,14.0,72,0.00,,SKC,0.00,VWS V14.01,2013-01-22 14:51:00,
2013-01-22 09:56:00,5.9,-1.2,25.30,West,264,6.0,11.0,72,0.00,,SKC,0.00,VWS V14.01,2013-01-22 14:56:00,
2013-01-22 10:01:00,5.7,-1.7,25.30,WSW,252,4.0,13.0,71,0.00,,SKC,0.00,VWS V14.01,2013-01-22 15:01:00,
2013-01-22 10:06:00,5.6,-1.2,25.30,West,265,6.0,9.0,73,0.00,,SKC,0.00,VWS V14.01,2013-01-22 15:06:00,
2013-01-22 10:11:00,5.9,-0.9,25.30,WSW,257,1.0,10.0,73,0.00,,SKC,0.00,VWS V14.01,2013-01-22 15:11:00,
2013-01-22 10:16:00,6.4,-0.4,25.30,NW,314,4.0,14.0,73,0.00,,SKC,0.00,VWS V14.01,2013-01-22 15:16:00,
2013-01-22 10:21:00,6.6,-0.8,25.30,NW,315,3.0,10.0,71,0.00,,SKC,0.00,VWS V14.01,2013-01-22 15:21:00,
2013-01-22 10:26:00,6.7,-0.7,25.30,West,277,7.0,13.0,71,0.00,,SKC,0.00,VWS V14.01,2013-01-22 15:26:00,
2013-01-22 10:31:00,6.6,-1.1,25.30,West,259,4.0,11.0,70,0.00,,SKC,0.00,VWS V14.01,2013-01-22 15:31:00,
2013-01-22 10:36:00,6.7,-0.7,25.30,West,261,3.0,14.0,71,0.00,,SKC,0.00,VWS V14.01,2013-01-22 15:36:00,
2013-01-22 10:41:00,6.9,0.1,24.60,NNW,329,11.0,11.0,73,0.00,,SKC,0.00,VWS V14.01,2013-01-22 15:41:00,
2013-01-22 10:46:00,7.3,0.5,24.70,NW,313,0.0,5.0,73,0.00,,SKC,0.00,VWS V14.01,2013-01-22 15:46:00,
2013-01-22 10:51:00,7.8,0.7,24.70,West,277,4.0,11.0,72,0.00,,SKC,0.00,VWS V14.01,2013-01-22 15:51:00,
2013-01-22 10:56:00,7.8,0.1,24.56,West,274,3.0,14.0,70,0.00,,SKC,0.00,VWS V14.01,2013-01-22 15:56:00,
2013-01-22 11:01:00,7.3,-1.0,24.56,WSW,250,7.0,15.0,68,0.00,,SKC,0.00,VWS V14.01,2013-01-22 16:01:00,
2013-01-22 11:06:00,7.7,-0.3,24.56,WSW,248,3.0,13.0,69,0.00,,SKC,0.00,VWS V14.01,2013-01-22 16:06:00,
2013-01-22 11:11:00,8.0,-0.4,24.50,WNW,296,6.0,9.0,68,0.00,,SKC,0.00,VWS V14.01,2013-01-22 16:11:00,
2013-01-22 11:16:00,8.0,-0.4,24.76,WSW,252,0.0,11.0,68,0.00,,SKC,0.00,VWS V14.01,2013-01-22 16:16:00,
2013-01-22 11:21:00,8.1,-0.3,24.59,West,268,15.0,17.0,68,0.00,,SKC,0.00,VWS V14.01,2013-01-22 16:21:00,
2013-01-22 11:26:00,7.4,-2.2,24.60,West,262,4.0,13.0,64,0.00,,SKC,0.00,VWS V14.01,2013-01-22 16:26:00,
2013-01-22 11:31:00,7.2,-2.4,24.60,SW,225,3.0,11.0,64,0.00,,SKC,0.00,VWS V14.01,2013-01-22 16:31:00,
2013-01-22 11:36:00,7.5,-1.8,24.59,SW,236,5.0,12.0,65,0.00,,SKC,0.00,VWS V14.01,2013-01-22 16:36:00,
2013-01-22 11:41:00,7.5,-1.5,24.59,NW,306,6.0,14.0,66,0.00,,SKC,0.00,VWS V14.01,2013-01-22 16:41:00,
2013-01-22 11:46:00,7.6,-1.4,24.59,SSW,200,1.0,11.0,66,0.00,,SKC,0.00,VWS V14.01,2013-01-22 16:46:00,
2013-01-22 11:51:00,8.6,-0.1,24.59,WNW,284,3.0,7.0,67,0.00,,SKC,0.00,VWS V14.01,2013-01-22 16:51:00,
2013-01-22 11:56:00,8.8,-0.6,24.57,WNW,286,3.0,12.0,65,0.00,,SKC,0.00,VWS V14.01,2013-01-22 16:56:00,
2013-01-22 12:01:00,8.9,-0.4,24.59,NW,315,7.0,7.0,65,0.00,,SKC,0.00,VWS V14.01,2013-01-22 17:01:00,
2013-01-22 12:06:00,8.7,-1.0,24.59,West,279,3.0,6.0,64,0.00,,SKC,0.00,VWS V14.01,2013-01-22 17:06:00,
2013-01-22 12:11:00,8.7,-1.0,24.61,WNW,297,7.0,9.0,64,0.00,,SKC,0.00,VWS V14.01,2013-01-22 17:11:00,
2013-01-22 12:16:00,8.9,-0.8,24.58,West,263,1.0,10.0,64,0.00,,SKC,0.00,VWS V14.01,2013-01-22 17:16:00,
2013-01-22 12:21:00,9.4,-0.6,24.58,NW,322,7.0,12.0,63,0.00,,SKC,0.00,VWS V14.01,2013-01-22 17:21:00,
2013-01-22 12:26:00,9.4,-1.0,24.58,NNW,336,4.0,11.0,62,0.00,,SKC,0.00,VWS V14.01,2013-01-22 17:26:00,
2013-01-22 12:31:00,9.8,0.1,24.59,West,271,5.0,12.0,64,0.00,,SKC,0.00,VWS V14.01,2013-01-22 17:31:00,
2013-01-22 12:36:00,9.8,-0.6,24.60,WNW,295,3.0,12.0,62,0.00,,SKC,0.00,VWS V14.01,2013-01-22 17:36:00,
2013-01-22 12:41:00,9.5,-1.2,24.59,WSW,244,2.0,6.0,61,0.00,,SKC,0.00,VWS V14.01,2013-01-22 17:41:00,
2013-01-22 12:46:00,9.1,-1.3,24.61,West,276,9.0,15.0,62,0.00,,SKC,0.00,VWS V14.01,2013-01-22 17:46:00,
2013-01-22 12:51:00,9.2,-1.2,24.62,NW,311,2.0,9.0,62,0.00,,SKC,0.00,VWS V14.01,2013-01-22 17:51:00,
2013-01-22 12:56:00,10.0,-0.4,24.60,WSW,255,6.0,14.0,62,0.00,,SKC,0.00,VWS V14.01,2013-01-22 17:56:00,
2013-01-22 13:01:00,9.8,-0.9,24.61,NW,311,5.0,16.0,61,0.00,,SKC,0.00,VWS V14.01,2013-01-22 18:01:00,
2013-01-22 13:06:00,10.2,0.1,24.61,WSW,256,4.0,11.0,63,0.00,,SKC,0.00,VWS V14.01,2013-01-22 18:06:00,
2013-01-22 13:11:00,10.0,-1.1,24.59,NNW,336,2.0,15.0,60,0.00,,SKC,0.00,VWS V14.01,2013-01-22 18:11:00,
2013-01-22 13:16:00,10.1,-1.0,24.58,WNW,302,12.0,12.0,60,0.00,,SKC,0.00,VWS V14.01,2013-01-22 18:16:00,
2013-01-22 13:21:00,9.7,-1.0,24.60,WNW,302,2.0,11.0,61,0.00,,SKC,0.00,VWS V14.01,2013-01-22 18:21:00,
2013-01-22 13:26:00,10.0,-0.4,24.58,WNW,295,3.0,12.0,62,0.00,,SKC,0.00,VWS V14.01,2013-01-22 18:26:00,
2013-01-22 13:31:00,10.2,-0.2,24.60,West,273,0.0,5.0,62,0.00,,SKC,0.00,VWS V14.01,2013-01-22 18:31:00,
2013-01-22 13:36:00,10.1,-0.3,24.58,NW,306,7.0,9.0,62,0.00,,SKC,0.00,VWS V14.01,2013-01-22 18:36:00,
2013-01-22 13:41:00,10.2,-1.3,24.60,WNW,298,6.0,15.0,59,0.00,,SKC,0.00,VWS V14.01,2013-01-22 18:41:00,
2013-01-22 13:46:00,10.1,-1.4,24.60,WNW,295,4.0,10.0,59,0.00,,SKC,0.00,VWS V14.01,2013-01-22 18:46:00,
2013-01-22 13:50:00,10.5,-0.3,24.58,WNW,296,2.0,10.0,61,0.00,,SKC,0.00,VWS V14.01,2013-01-22 18:50:00,
2013-01-22 13:55:00,11.2,0.4,24.60,SW,231,2.0,10.0,61,0.00,,SKC,0.00,VWS V14.01,2013-01-22 18:55:00,
2013-01-22 14:00:00,11.4,-0.1,24.59,WSW,252,10.0,15.0,59,0.00,,SKC,0.00,VWS V14.01,2013-01-22 19:00:00,
2013-01-22 14:05:00,11.6,0.1,24.56,NNW,331,2.0,14.0,59,0.00,,SKC,0.00,VWS V14.01,2013-01-22 19:05:00,
2013-01-22 14:10:00,11.4,-0.1,24.58,WSW,246,3.0,11.0,59,0.00,,SKC,0.00,VWS V14.01,2013-01-22 19:10:00,
2013-01-22 14:15:00,12.0,0.8,24.56,West,262,10.0,10.0,60,0.00,,SKC,0.00,VWS V14.01,2013-01-22 19:15:00,
2013-01-22 14:20:00,11.7,-0.6,24.59,NW,310,10.0,14.0,57,0.00,,SKC,0.00,VWS V14.01,2013-01-22 19:20:00,
2013-01-22 14:25:00,11.3,-0.6,24.58,West,267,4.0,12.0,58,0.00,,SKC,0.00,VWS V14.01,2013-01-22 19:25:00,
2013-01-22 14:30:00,11.3,-0.2,24.59,West,276,4.0,13.0,59,0.00,,SKC,0.00,VWS V14.01,2013-01-22 19:30:00,
2013-01-22 14:35:00,11.7,0.2,24.59,West,281,1.0,9.0,59,0.00,,SKC,0.00,VWS V14.01,2013-01-22 19:35:00,
2013-01-22 14:40:00,12.3,0.3,24.58,West,279,6.0,10.0,58,0.00,,SKC,0.00,VWS V14.01,2013-01-22 19:40:00,
2013-01-22 14:45:00,12.5,0.5,24.58,NNW,338,6.0,9.0,58,0.00,,SKC,0.00,VWS V14.01,2013-01-22 19:45:00,
2013-01-22 14:50:00,12.8,0.4,24.59,West,271,2.0,10.0,57,0.00,,SKC,0.00,VWS V14.01,2013-01-22 19:50:00,
2013-01-22 14:55:00,13.0,-0.1,24.58,West,275,10.0,15.0,55,0.00,,SKC,0.00,VWS V14.01,2013-01-22 19:55:00,
2013-01-22 15:00:00,12.9,-0.2,24.58,WNW,299,14.0,18.0,55,0.00,,SKC,0.00,VWS V14.01,2013-01-22 20:00:00,
2013-01-22 15:05:00,12.8,-0.3,24.59,WNW,302,9.0,12.0,55,0.00,,SKC,0.00,VWS V14.01,2013-01-22 20:05:00,
2013-01-22 15:10:00,12.8,-0.7,24.59,NW,309,3.0,12.0,54,0.00,,SKC,0.00,VWS V14.01,2013-01-22 20:10:00,
2013-01-22 15:15:00,13.0,-0.5,24.57,WNW,294,5.0,10.0,54,0.00,,SKC,0.00,VWS V14.01,2013-01-22 20:15:00,
2013-01-22 15:20:00,13.4,-0.1,24.59,NNW,337,7.0,12.0,54,0.00,,SKC,0.00,VWS V14.01,2013-01-22 20:20:00,
2013-01-22 15:26:00,13.4,-0.1,24.59,West,279,4.0,13.0,54,0.00,,SKC,0.00,VWS V14.01,2013-01-22 20:26:00,
2013-01-22 15:31:00,13.3,-0.2,24.56,West,281,9.0,15.0,54,0.00,,SKC,0.00,VWS V14.01,2013-01-22 20:31:00,
2013-01-22 15:36:00,13.7,0.2,24.60,NW,314,11.0,11.0,54,0.00,,SKC,0.00,VWS V14.01,2013-01-22 20:36:00,
2013-01-22 15:41:00,13.3,-0.2,24.58,WNW,303,8.0,14.0,54,0.00,,SKC,0.00,VWS V14.01,2013-01-22 20:41:00,
2013-01-22 15:46:00,12.9,-0.6,24.61,NNW,338,1.0,12.0,54,0.00,,SKC,0.00,VWS V14.01,2013-01-22 20:46:00,
2013-01-22 15:51:00,13.1,0.0,24.58,West,278,2.0,13.0,55,0.00,,SKC,0.00,VWS V14.01,2013-01-22 20:51:00,
2013-01-22 15:56:00,13.2,0.1,24.56,WNW,288,8.0,8.0,55,0.00,,SKC,0.00,VWS V14.01,2013-01-22 20:56:00,
2013-01-22 16:01:00,13.4,0.3,24.58,WNW,286,14.0,14.0,55,0.00,,SKC,0.00,VWS V14.01,2013-01-22 21:01:00,
2013-01-22 16:06:00,13.4,-0.1,24.58,West,272,4.0,14.0,54,0.00,,SKC,0.00,VWS V14.01,2013-01-22 21:06:00,
2013-01-22 16:11:00,13.7,0.5,24.59,West,271,6.0,11.0,55,0.00,,SKC,0.00,VWS V14.01,2013-01-22 21:11:00,
2013-01-22 16:16:00,14.1,0.9,24.56,WNW,303,10.0,13.0,55,0.00,,SKC,0.00,VWS V14.01,2013-01-22 21:16:00,
2013-01-22 16:21:00,14.3,0.7,24.56,WNW,300,9.0,15.0,54,0.00,,SKC,0.00,VWS V14.01,2013-01-22 21:21:00,
2013-01-22 16:26:00,14.2,0.2,24.58,North,349,1.0,11.0,53,0.00,,SKC,0.00,VWS V14.01,2013-01-22 21:26:00,
2013-01-22 16:31:00,14.4,0.4,24.58,WNW,292,3.0,9.0,53,0.00,,SKC,0.00,VWS V14.01,2013-01-22 21:31:00,
2013-01-22 16:36:00,14.3,0.3,24.59,WNW,296,9.0,12.0,53,0.00,,SKC,0.00,VWS V14.01,2013-01-22 21:36:00,
2013-01-22 16:41:00,14.2,-0.2,24.55,WNW,295,13.0,13.0,52,0.00,,SKC,0.00,VWS V14.01,2013-01-22 21:41:00,
2013-01-22 16:46:00,14.3,-0.5,24.58,West,277,2.0,15.0,51,0.00,,SKC,0.00,VWS V14.01,2013-01-22 21:46:00,
2013-01-22 16:51:00,14.0,-0.4,24.61,NW,309,13.0,14.0,52,0.00,,SKC,0.00,VWS V14.01,2013-01-22 21:51:00,
2013-01-22 16:56:00,14.0,-0.4,24.57,West,272,7.0,14.0,52,0.00,,SKC,0.00,VWS V14.01,2013-01-22 21:56:00,
2013-01-22 17:01:00,14.0,-0.4,24.59,West,265,5.0,13.0,52,0.00,,SKC,0.00,VWS V14.01,2013-01-22 22:01:00,
2013-01-22 17:06:00,13.9,-0.5,24.59,WSW,246,5.0,14.0,52,0.00,,SKC,0.00,VWS V14.01,2013-01-22 22:06:00,
2013-01-22 17:11:00,13.9,-0.5,24.57,WNW,284,3.0,13.0,52,0.00,,SKC,0.00,VWS V14.01,2013-01-22 22:11:00,
2013-01-22 17:17:00,14.1,-0.3,24.58,WNW,289,13.0,13.0,52,0.00,,SKC,0.00,VWS V14.01,2013-01-22 22:17:00,
2013-01-22 17:22:00,14.0,-0.4,24.58,NW,318,11.0,12.0,52,0.00,,SKC,0.00,VWS V14.01,2013-01-22 22:22:00,
2013-01-22 17:27:00,13.7,-0.6,24.59,NW,311,3.0,13.0,52,0.00,,SKC,0.00,VWS V14.01,2013-01-22 22:27:00,
2013-01-22 17:32:00,13.6,-0.8,24.60,WSW,257,11.0,13.0,52,0.00,,SKC,0.00,VWS V14.01,2013-01-22 22:32:00,
2013-01-22 17:37:00,13.5,-0.4,24.60,NW,304,6.0,14.0,53,0.00,,SKC,0.00,VWS V14.01,2013-01-22 22:37:00,
2013-01-22 17:42:00,13.5,-0.4,24.58,WNW,288,7.0,12.0,53,0.00,,SKC,0.00,VWS V14.01,2013-01-22 22:42:00,
2013-01-22 17:47:00,13.4,-0.5,24.59,West,277,4.0,14.0,53,0.00,,SKC,0.00,VWS V14.01,2013-01-22 22:47:00,
2013-01-22 17:52:00,13.5,0.0,24.62,WSW,257,2.0,15.0,54,0.00,,SKC,0.00,VWS V14.01,2013-01-22 22:52:00,
2013-01-22 17:57:00,13.4,-0.1,24.62,WNW,287,5.0,14.0,54,0.00,,SKC,0.00,VWS V14.01,2013-01-22 22:57:00,
2013-01-22 18:02:00,13.4,-0.1,24.62,West,278,4.0,11.0,54,0.00,,SKC,0.00,VWS V14.01,2013-01-22 23:02:00,
2013-01-22 18:07:00,13.4,-0.1,24.49,NW,319,10.0,11.0,54,0.00,,SKC,0.00,VWS V14.01,2013-01-22 23:07:00,
2013-01-22 18:12:00,13.4,-0.1,24.46,WNW,293,0.0,5.0,54,0.00,,SKC,0.00,VWS V14.01,2013-01-22 23:12:00,
2013-01-22 18:17:00,13.3,0.2,24.72,West,281,2.0,12.0,55,0.00,,SKC,0.00,VWS V14.01,2013-01-22 23:17:00,
2013-01-22 18:22:00,13.3,0.2,24.72,WSW,252,3.0,10.0,55,0.00,,SKC,0.00,VWS V14.01,2013-01-22 23:22:00,
2013-01-22 18:27:00,13.2,0.1,24.72,West,269,3.0,9.0,55,0.00,,SKC,0.00,VWS V14.01,2013-01-22 23:27:00,
2013-01-22 18:32:00,13.2,0.4,24.72,WNW,293,2.0,9.0,56,0.00,,SKC,0.00,VWS V14.01,2013-01-22 23:32:00,
2013-01-22 18:37:00,13.1,0.0,24.83,West,271,2.0,12.0,55,0.00,,SKC,0.00,VWS V14.01,2013-01-22 23:37:00,
2013-01-22 18:42:00,13.2,0.4,24.81,West,280,3.0,10.0,56,0.00,,SKC,0.00,VWS V14.01,2013-01-22 23:42:00,
2013-01-22 18:47:00,13.2,0.1,24.81,WNW,299,4.0,11.0,55,0.00,,SKC,0.00,VWS V14.01,2013-01-22 23:47:00,
2013-01-22 18:52:00,13.2,0.1,24.81,West,269,7.0,11.0,55,0.00,,SKC,0.00,VWS V14.01,2013-01-22 23:52:00,
2013-01-22 18:57:00,13.2,0.1,24.81,West,270,3.0,11.0,55,0.00,,SKC,0.00,VWS V14.01,2013-01-22 23:57:00,
2013-01-22 19:02:00,13.2,0.1,24.81,West,273,2.0,7.0,55,0.00,,SKC,0.00,VWS V14.01,2013-01-23 00:02:00,
2013-01-22 19:07:00,13.3,0.2,24.81,West,260,5.0,10.0,55,0.00,,SKC,0.00,VWS V14.01,2013-01-23 00:07:00,
2013-01-22 19:12:00,13.3,0.6,24.81,West,272,0.0,6.0,56,0.00,,SKC,0.00,VWS V14.01,2013-01-23 00:12:00,
2013-01-22 19:17:00,13.4,0.6,24.81,WSW,251,4.0,9.0,56,0.00,,SKC,0.00,VWS V14.01,2013-01-23 00:17:00,
2013-01-22 19:22:00,13.4,0.6,24.81,West,267,1.0,12.0,56,0.00,,SKC,0.00,VWS V14.01,2013-01-23 00:22:00,
2013-01-22 19:27:00,13.3,0.6,24.81,WNW,291,0.0,7.0,56,0.00,,SKC,0.00,VWS V14.01,2013-01-23 00:27:00,
2013-01-22 19:32:00,13.4,0.6,24.81,West,268,3.0,9.0,56,0.00,,SKC,0.00,VWS V14.01,2013-01-23 00:32:00,
2013-01-22 19:37:00,13.4,0.6,24.81,NW,313,6.0,12.0,56,0.00,,SKC,0.00,VWS V14.01,2013-01-23 00:37:00,
2013-01-22 19:42:00,13.4,0.6,24.81,West,281,3.0,7.0,56,0.00,,SKC,0.00,VWS V14.01,2013-01-23 00:42:00,
2013-01-22 19:47:00,13.4,0.6,24.81,WNW,288,1.0,5.0,56,0.00,,SKC,0.00,VWS V14.01,2013-01-23 00:47:00,
2013-01-22 19:52:00,13.4,1.0,24.81,WNW,300,3.0,9.0,57,0.00,,SKC,0.00,VWS V14.01,2013-01-23 00:52:00,
2013-01-22 19:57:00,13.4,1.0,24.81,NW,304,3.0,11.0,57,0.00,,SKC,0.00,VWS V14.01,2013-01-23 00:57:00,
2013-01-22 20:02:00,13.4,1.0,24.81,WNW,286,4.0,9.0,57,0.00,,SKC,0.00,VWS V14.01,2013-01-23 01:02:00,
2013-01-22 20:07:00,13.4,1.0,24.81,West,263,3.0,9.0,57,0.00,,SKC,0.00,VWS V14.01,2013-01-23 01:07:00,
2013-01-22 20:12:00,13.4,1.0,24.81,West,269,0.0,6.0,57,0.00,,SKC,0.00,VWS V14.01,2013-01-23 01:12:00,
2013-01-22 20:17:00,13.5,1.5,24.81,West,279,3.0,8.0,58,0.00,,SKC,0.00,VWS V14.01,2013-01-23 01:17:00,
2013-01-22 20:22:00,13.5,1.5,24.81,WNW,300,3.0,6.0,58,0.00,,SKC,0.00,VWS V14.01,2013-01-23 01:22:00,
2013-01-22 20:27:00,13.5,1.1,24.81,WNW,294,5.0,10.0,57,0.00,,SKC,0.00,VWS V14.01,2013-01-23 01:27:00,
2013-01-22 20:32:00,13.4,1.0,24.81,West,272,3.0,6.0,57,0.00,,SKC,0.00,VWS V14.01,2013-01-23 01:32:00,
2013-01-22 20:37:00,13.4,1.4,24.81,NW,313,0.0,5.0,58,0.00,,SKC,0.00,VWS V14.01,2013-01-23 01:37:00,
2013-01-22 20:42:00,13.5,1.5,24.81,WNW,285,2.0,6.0,58,0.00,,SKC,0.00,VWS V14.01,2013-01-23 01:42:00,
2013-01-22 20:47:00,13.4,1.4,25.45,WNW,291,3.0,5.0,58,0.00,,SKC,0.00,VWS V14.01,2013-01-23 01:47:00,
2013-01-22 20:52:00,13.4,1.4,25.45,West,261,2.0,9.0,58,0.00,,SKC,0.00,VWS V14.01,2013-01-23 01:52:00,
2013-01-22 20:57:00,13.4,1.4,25.45,West,275,1.0,7.0,58,0.00,,SKC,0.00,VWS V14.01,2013-01-23 01:57:00,
2013-01-22 21:02:00,13.4,1.8,25.45,NW,304,0.0,6.0,59,0.00,,SKC,0.00,VWS V14.01,2013-01-23 02:02:00,
2013-01-22 21:07:00,13.4,1.8,25.45,West,269,2.0,7.0,59,0.00,,SKC,0.00,VWS V14.01,2013-01-23 02:07:00,
2013-01-22 21:12:00,13.4,1.8,25.45,West,271,6.0,11.0,59,0.00,,SKC,0.00,VWS V14.01,2013-01-23 02:12:00,
2013-01-22 21:17:00,13.5,1.9,24.63,WNW,283,4.0,7.0,59,0.00,,SKC,0.00,VWS V14.01,2013-01-23 02:17:00,
2013-01-22 21:22:00,13.5,1.9,24.63,NW,318,0.0,4.0,59,0.00,,SKC,0.00,VWS V14.01,2013-01-23 02:22:00,
2013-01-22 21:27:00,13.5,1.5,24.63,WNW,295,5.0,10.0,58,0.00,,SKC,0.00,VWS V14.01,2013-01-23 02:27:00,
2013-01-22 21:32:00,13.5,1.9,24.63,West,264,0.0,9.0,59,0.00,,SKC,0.00,VWS V14.01,2013-01-23 02:32:00,
2013-01-22 21:37:00,13.5,1.5,25.74,NW,321,4.0,10.0,58,0.00,,SKC,0.00,VWS V14.01,2013-01-23 02:37:00,
2013-01-22 21:42:00,13.5,1.5,25.74,NW,317,1.0,7.0,58,0.00,,SKC,0.00,VWS V14.01,2013-01-23 02:42:00,
2013-01-22 21:47:00,13.5,1.5,25.74,West,281,2.0,11.0,58,0.00,,SKC,0.00,VWS V14.01,2013-01-23 02:47:00,
2013-01-22 21:52:00,13.5,1.1,25.74,WNW,283,1.0,9.0,57,0.00,,SKC,0.00,VWS V14.01,2013-01-23 02:52:00,
2013-01-22 21:57:00,13.5,1.5,25.74,West,271,4.0,6.0,58,0.00,,SKC,0.00,VWS V14.01,2013-01-23 02:57:00,
2013-01-22 22:02:00,13.5,1.1,25.74,West,265,5.0,6.0,57,0.00,,SKC,0.00,VWS V14.01,2013-01-23 03:02:00,
2013-01-22 22:07:00,13.4,1.0,25.74,NW,304,2.0,8.0,57,0.00,,SKC,0.00,VWS V14.01,2013-01-23 03:07:00,
2013-01-22 22:12:00,13.3,0.9,25.74,West,279,4.0,10.0,57,0.00,,SKC,0.00,VWS V14.01,2013-01-23 03:12:00,
2013-01-22 22:17:00,13.3,0.9,25.74,West,265,3.0,9.0,57,0.00,,SKC,0.00,VWS V14.01,2013-01-23 03:17:00,
2013-01-22 22:22:00,13.3,0.9,25.74,NW,311,0.0,7.0,57,0.00,,SKC,0.00,VWS V14.01,2013-01-23 03:22:00,
2013-01-22 22:27:00,13.2,0.8,25.74,WNW,291,2.0,5.0,57,0.00,,SKC,0.00,VWS V14.01,2013-01-23 03:27:00,
2013-01-22 22:32:00,13.1,0.7,25.74,WNW,289,0.0,4.0,57,0.00,,SKC,0.00,VWS V14.01,2013-01-23 03:32:00,
2013-01-22 22:37:00,13.1,1.1,26.20,NW,322,2.0,5.0,58,0.00,,SKC,0.00,VWS V14.01,2013-01-23 03:37:00,
2013-01-22 22:42:00,13.1,1.1,26.20,WSW,253,3.0,10.0,58,0.00,,SKC,0.00,VWS V14.01,2013-01-23 03:42:00,
2013-01-22 22:47:00,13.0,0.6,26.20,WNW,292,2.0,9.0,57,0.00,,SKC,0.00,VWS V14.01,2013-01-23 03:47:00,
2013-01-22 22:52:00,13.0,0.6,26.20,WSW,256,7.0,10.0,57,0.00,,SKC,0.00,VWS V14.01,2013-01-23 03:52:00,
2013-01-22 22:57:00,12.9,0.2,26.20,WNW,291,2.0,7.0,56,0.00,,SKC,0.00,VWS V14.01,2013-01-23 03:57:00,
2013-01-22 23:02:00,12.9,0.6,26.20,West,266,5.0,6.0,57,0.00,,SKC,0.00,VWS V14.01,2013-01-23 04:02:00,
2013-01-22 23:07:00,12.8,0.8,26.20,WNW,290,3.0,5.0,58,0.00,,SKC,0.00,VWS V14.01,2013-01-23 04:07:00,
2013-01-22 23:12:00,12.8,0.4,26.20,West,279,1.0,4.0,57,0.00,,SKC,0.00,VWS V14.01,2013-01-23 04:12:00,
2013-01-22 23:17:00,12.8,0.8,26.20,NW,309,0.0,4.0,58,0.00,,SKC,0.00,VWS V14.01,2013-01-23 04:17:00,
2013-01-22 23:22:00,12.6,0.3,26.20,WNW,284,0.0,6.0,57,0.00,,SKC,0.00,VWS V14.01,2013-01-23 04:22:00,
2013-01-22 23:27:00,12.4,0.1,26.20,West,269,1.0,6.0,57,0.00,,SKC,0.00,VWS V14.01,2013-01-23 04:27:00,
2013-01-22 23:32:00,12.4,0.4,26.20,WNW,291,3.0,11.0,58,0.00,,SKC,0.00,VWS V14.01,2013-01-23 04:32:00,
2013-01-22 23:38:00,12.3,0.3,26.20,WNW,292,0.0,6.0,58,0.00,,SKC,0.00,VWS V14.01,2013-01-23 04:38:00,
2013-01-22 23:43:00,12.3,0.3,26.20,WSW,255,2.0,2.0,58,0.00,,SKC,0.00,VWS V14.01,2013-01-23 04:43:00,
2013-01-22 23:47:00,12.2,0.3,26.20,West,281,0.0,4.0,58,0.00,,SKC,0.00,VWS V14.01,2013-01-23 04:47:00,
2013-01-22 23:52:00,12.1,0.2,25.74,West,262,2.0,9.0,58,0.00,,SKC,0.00,VWS V14.01,2013-01-23 04:52:00,
2013-01-22 23:57:00,12.1,0.5,25.74,WNW,287,1.0,6.0,59,0.00,,SKC,0.00,VWS V14.01,2013-01-23 04:57:00,